User: anonymous   Login
Location: Banios
(43.0451°N, 0.2335°E)
Time: 02:59:30
(UTC+00:00)
Language:

Cosmos 1125 Rocket - Orbit

View from above orbital plane
View from above orbital plane
View from above satellite
View from above satellite

Ground track
Ground track

The orbit data is extracted from the following two-line orbital elements,

1 11511U 79078B   21102.51802216  .00000080  00000-0  35816-4 0  9996
2 11511  74.0344 270.3544 0015558 176.7385 183.3872 14.36921533178734
Epoch (UTC): 12 April 2021 12:25:57
Eccentricity: 0.0015558
inclination: 74.0344°
perigee height: 757 km
apogee height: 780 km
right ascension of ascending node: 270.3544°
argument of perigee: 176.7385°
revolutions per day: 14.36921533
mean anomaly at epoch: 183.3872°
orbit number at epoch: 17873

The dashed part of the orbit path shows where the satellite is in the earth's shadow,  

DLR